| time (UTC) | temp C | wind direction | speed KPH | gust KPH | rain 1hr cm | rain 24hr cm | rain mn cm | humidity % | barometer mb |
| 20260506165511 | 17 | 209 | 4.8 | 12.9 | 0.00 | 0.00 | 0.00 | 71 | 1020.5 |
| 20260506165010 | 17 | 231 | 6.4 | 12.9 | 0.00 | 0.00 | 0.00 | 71 | 1020.5 |
| 20260506164528 | 17 | 221 | 4.8 | 12.9 | 0.00 | 0.00 | 0.00 | 73 | 1020.5 |
| 20260506164014 | 17 | 219 | 4.8 | 14.5 | 0.00 | 0.00 | 0.00 | 73 | 1020.5 |
| 20260506163510 | 17 | 147 | 4.8 | 14.5 | 0.00 | 0.00 | 0.00 | 73 | 1020.5 |
| 20260506163035 | 16 | 179 | 4.8 | 14.5 | 0.00 | 0.00 | 0.00 | 73 | 1020.5 |
| 20260506162512 | 16 | 159 | 3.2 | 9.7 | 0.00 | 0.00 | 0.00 | 74 | 1020.4 |
| 20260506162012 | 16 | 230 | 4.8 | 11.3 | 0.00 | 0.00 | 0.00 | 74 | 1020.4 |
| 20260506161530 | 16 | 198 | 4.8 | 12.9 | 0.00 | 0.00 | 0.00 | 75 | 1020.5 |
| 20260506161010 | 16 | 220 | 3.2 | 12.9 | 0.00 | 0.00 | 0.00 | 76 | 1020.5 |
| 20260506160513 | 16 | 167 | 4.8 | 17.7 | 0.00 | 0.00 | 0.00 | 76 | 1020.5 |
| 20260506160028 | 16 | 148 | 3.2 | 17.7 | 0.00 | 0.00 | 0.00 | 77 | 1020.6 |
| 20260506155510 | 15 | 216 | 4.8 | 14.5 | 0.00 | 0.00 | 0.00 | 77 | 1020.5 |
| 20260506155009 | 15 | 221 | 4.8 | 16.1 | 0.00 | 0.00 | 0.00 | 78 | 1020.6 |
| 20260506154529 | 15 | 171 | 4.8 | 16.1 | 0.00 | 0.00 | 0.00 | 79 | 1020.6 |
| 20260506154016 | 15 | 198 | 6.4 | 12.9 | 0.00 | 0.00 | 0.00 | 79 | 1020.5 |
| 20260506153511 | 15 | 168 | 4.8 | 11.3 | 0.00 | 0.00 | 0.00 | 80 | 1020.6 |
| 20260506153027 | 15 | 190 | 3.2 | 14.5 | 0.00 | 0.00 | 0.00 | 80 | 1020.5 |
| 20260506152509 | 15 | 235 | 6.4 | 14.5 | 0.00 | 0.00 | 0.00 | 80 | 1020.5 |
| 20260506152012 | 15 | 191 | 4.8 | 12.9 | 0.00 | 0.00 | 0.00 | 81 | 1020.4 |
| 20260506151529 | 14 | 157 | 4.8 | 12.9 | 0.00 | 0.00 | 0.00 | 82 | 1020.4 |
| 20260506151018 | 14 | 194 | 4.8 | 12.9 | 0.00 | 0.00 | 0.00 | 82 | 1020.4 |
| 20260506150512 | 14 | 173 | 4.8 | 12.9 | 0.00 | 0.00 | 0.00 | 83 | 1020.4 |
| 20260506150029 | 13 | 246 | 4.8 | 12.9 | 0.00 | 0.00 | 0.00 | 83 | 1020.4 |
| 20260506145512 | 13 | 246 | 4.8 | 14.5 | 0.00 | 0.00 | 0.00 | 83 | 1020.4 |
| 20260506145013 | 13 | 232 | 4.8 | 14.5 | 0.00 | 0.00 | 0.00 | 84 | 1020.4 |
| 20260506144534 | 13 | 213 | 3.2 | 11.3 | 0.00 | 0.00 | 0.00 | 84 | 1020.4 |
| 20260506144012 | 13 | 194 | 3.2 | 11.3 | 0.00 | 0.00 | 0.00 | 84 | 1020.3 |
| 20260506143513 | 13 | 172 | 1.6 | 11.3 | 0.00 | 0.00 | 0.00 | 84 | 1020.2 |
| 20260506143029 | 13 | 204 | 1.6 | 11.3 | 0.00 | 0.00 | 0.00 | 84 | 1020.3 |
| 20260506142514 | 13 | 171 | 1.6 | 11.3 | 0.00 | 0.00 | 0.00 | 84 | 1020.2 |
| 20260506142014 | 13 | 166 | 3.2 | 8.0 | 0.00 | 0.00 | 0.00 | 84 | 1020.1 |
| 20260506141533 | 13 | 0 | 1.6 | 8.0 | 0.00 | 0.00 | 0.00 | 84 | 1020.1 |
| 20260506141016 | 13 | 176 | 0.0 | 6.4 | 0.00 | 0.00 | 0.00 | 84 | 1020.0 |
| 20260506140515 | 13 | 0 | 0.0 | 9.7 | 0.00 | 0.00 | 0.00 | 84 | 1019.9 |
| 20260506140028 | 13 | 0 | 3.2 | 9.7 | 0.00 | 0.00 | 0.00 | 84 | 1019.8 |
| 20260506135513 | 13 | 238 | 1.6 | 11.3 | 0.00 | 0.00 | 0.00 | 83 | 1019.8 |
| 20260506135013 | 13 | 117 | 3.2 | 11.3 | 0.00 | 0.00 | 0.00 | 83 | 1019.7 |
| 20260506134527 | 13 | 120 | 3.2 | 9.7 | 0.00 | 0.00 | 0.00 | 83 | 1019.7 |
| 20260506134012 | 13 | 115 | 1.6 | 11.3 | 0.00 | 0.00 | 0.00 | 83 | 1019.6 |
| 20260506133516 | 13 | 104 | 1.6 | 11.3 | 0.00 | 0.00 | 0.00 | 83 | 1019.7 |
| 20260506133028 | 13 | 130 | 3.2 | 11.3 | 0.00 | 0.00 | 0.00 | 83 | 1019.6 |
| 20260506132522 | 13 | 165 | 1.6 | 9.7 | 0.00 | 0.00 | 0.00 | 83 | 1019.6 |
| 20260506132012 | 13 | 0 | 1.6 | 12.9 | 0.00 | 0.00 | 0.00 | 83 | 1019.6 |
| 20260506131537 | 13 | 111 | 3.2 | 12.9 | 0.00 | 0.00 | 0.00 | 83 | 1019.5 |
| 20260506131014 | 13 | 109 | 3.2 | 12.9 | 0.00 | 0.00 | 0.00 | 83 | 1019.5 |
| 20260506130514 | 13 | 113 | 1.6 | 9.7 | 0.00 | 0.00 | 0.00 | 83 | 1019.5 |
| 20260506130028 | 13 | 0 | 1.6 | 9.7 | 0.00 | 0.00 | 0.00 | 83 | 1019.5 |
| 20260506125513 | 13 | 126 | 1.6 | 9.7 | 0.00 | 0.00 | 0.00 | 83 | 1019.5 |
| 20260506125013 | 13 | 200 | 1.6 | 12.9 | 0.00 | 0.00 | 0.00 | 83 | 1019.4 |
| 20260506124529 | 13 | 0 | 1.6 | 14.5 | 0.00 | 0.00 | 0.00 | 83 | 1019.4 |
| 20260506124011 | 13 | 220 | 3.2 | 14.5 | 0.00 | 0.00 | 0.00 | 83 | 1019.4 |
| 20260506123512 | 13 | 219 | 1.6 | 12.9 | 0.00 | 0.00 | 0.00 | 83 | 1019.3 |
| 20260506123028 | 13 | 162 | 4.8 | 12.9 | 0.00 | 0.00 | 0.00 | 84 | 1019.3 |
| 20260506122514 | 13 | 243 | 3.2 | 8.0 | 0.00 | 0.00 | 0.00 | 83 | 1019.4 |
| 20260506122013 | 13 | 254 | 1.6 | 11.3 | 0.00 | 0.00 | 0.00 | 83 | 1019.4 |
| 20260506121531 | 13 | 0 | 1.6 | 11.3 | 0.00 | 0.00 | 0.00 | 83 | 1019.4 |
| 20260506121016 | 13 | 241 | 3.2 | 11.3 | 0.00 | 0.00 | 0.00 | 83 | 1019.4 |
| 20260506120512 | 13 | 213 | 0.0 | 3.2 | 0.00 | 0.00 | 0.00 | 83 | 1019.4 |
| 20260506120033 | 13 | 0 | 0.0 | 3.2 | 0.00 | 0.00 | 0.00 | 83 | 1019.4 |
| 20260506115516 | 13 | 0 | 0.0 | 3.2 | 0.00 | 0.00 | 0.00 | 83 | 1019.3 |
| 20260506115016 | 13 | 0 | 0.0 | 12.9 | 0.00 | 0.00 | 0.00 | 83 | 1019.3 |
| 20260506114533 | 13 | 0 | 3.2 | 12.9 | 0.00 | 0.00 | 0.00 | 83 | 1019.3 |
| 20260506114012 | 13 | 280 | 3.2 | 12.9 | 0.00 | 0.00 | 0.00 | 83 | 1019.3 |
| 20260506113514 | 13 | 235 | 1.6 | 12.9 | 0.00 | 0.00 | 0.00 | 83 | 1019.2 |
| 20260506113030 | 13 | 244 | 3.2 | 11.3 | 0.00 | 0.00 | 0.00 | 83 | 1019.2 |
| 20260506112512 | 13 | 220 | 1.6 | 12.9 | 0.00 | 0.00 | 0.00 | 83 | 1019.2 |
| 20260506112012 | 13 | 190 | 1.6 | 12.9 | 0.00 | 0.00 | 0.00 | 83 | 1019.2 |
| 20260506111527 | 13 | 0 | 1.6 | 4.8 | 0.00 | 0.00 | 0.00 | 83 | 1019.1 |
| 20260506111012 | 13 | 0 | 0.0 | 4.8 | 0.00 | 0.00 | 0.00 | 83 | 1019.1 |
| 20260506110514 | 13 | 266 | 0.0 | 4.8 | 0.00 | 0.00 | 0.00 | 83 | 1018.9 |
| 20260506110033 | 13 | 323 | 0.0 | 4.8 | 0.00 | 0.00 | 0.00 | 83 | 1018.9 |
| 20260506105514 | 13 | 226 | 1.6 | 4.8 | 0.00 | 0.03 | 0.00 | 83 | 1018.9 |
| 20260506105017 | 13 | 0 | 0.0 | 4.8 | 0.00 | 0.03 | 0.00 | 83 | 1018.8 |
| 20260506104530 | 13 | 11 | 1.6 | 4.8 | 0.00 | 0.03 | 0.00 | 83 | 1018.9 |
| 20260506104013 | 13 | 0 | 0.0 | 3.2 | 0.00 | 0.03 | 0.00 | 83 | 1018.8 |
| 20260506103514 | 13 | 0 | 0.0 | 14.5 | 0.00 | 0.03 | 0.00 | 83 | 1018.7 |
| 20260506103036 | 13 | 0 | 1.6 | 14.5 | 0.00 | 0.03 | 0.00 | 83 | 1018.7 |
| 20260506102511 | 13 | 0 | 0.0 | 14.5 | 0.00 | 0.03 | 0.00 | 83 | 1018.7 |
| 20260506102011 | 13 | 178 | 0.0 | 14.5 | 0.00 | 0.03 | 0.00 | 83 | 1018.6 |
| 20260506101543 | 13 | 229 | 4.8 | 14.5 | 0.00 | 0.03 | 0.00 | 83 | 1018.6 |
| 20260506101013 | 13 | 217 | 4.8 | 14.5 | 0.00 | 0.03 | 0.00 | 83 | 1018.6 |
| 20260506100512 | 13 | 211 | 3.2 | 16.1 | 0.00 | 0.03 | 0.00 | 83 | 1018.5 |
| 20260506100037 | 13 | 230 | 1.6 | 17.7 | 0.00 | 0.03 | 0.00 | 83 | 1018.5 |
| 20260506095513 | 13 | 178 | 1.6 | 17.7 | 0.00 | 0.03 | 0.00 | 83 | 1018.5 |
| 20260506095017 | 13 | 238 | 4.8 | 17.7 | 0.00 | 0.03 | 0.00 | 83 | 1018.5 |
| 20260506094530 | 13 | 250 | 3.2 | 11.3 | 0.00 | 0.03 | 0.00 | 83 | 1018.5 |
| 20260506094017 | 13 | 189 | 1.6 | 14.5 | 0.00 | 0.03 | 0.00 | 82 | 1018.5 |
| 20260506093513 | 13 | 215 | 6.4 | 14.5 | 0.00 | 0.03 | 0.00 | 82 | 1018.5 |
| 20260506093038 | 13 | 234 | 6.4 | 14.5 | 0.00 | 0.03 | 0.00 | 82 | 1018.6 |
| 20260506092512 | 13 | 238 | 3.2 | 14.5 | 0.00 | 0.03 | 0.00 | 82 | 1018.7 |
| 20260506092016 | 13 | 243 | 4.8 | 14.5 | 0.00 | 0.03 | 0.00 | 82 | 1018.8 |
| 20260506091529 | 13 | 236 | 3.2 | 12.9 | 0.00 | 0.03 | 0.00 | 82 | 1018.8 |
| 20260506091013 | 13 | 254 | 4.8 | 12.9 | 0.00 | 0.03 | 0.00 | 82 | 1018.7 |
| 20260506090512 | 13 | 158 | 3.2 | 11.3 | 0.00 | 0.03 | 0.00 | 82 | 1018.7 |
| 20260506090027 | 13 | 248 | 1.6 | 9.7 | 0.00 | 0.03 | 0.00 | 82 | 1018.7 |
| 20260506085513 | 13 | 161 | 1.6 | 9.7 | 0.00 | 0.05 | 0.00 | 82 | 1018.7 |
| 20260506085012 | 13 | 169 | 3.2 | 16.1 | 0.00 | 0.05 | 0.00 | 82 | 1018.8 |
| 20260506084528 | 13 | 236 | 1.6 | 16.1 | 0.00 | 0.05 | 0.00 | 82 | 1018.8 |
| 20260506084010 | 13 | 0 | 4.8 | 14.5 | 0.00 | 0.05 | 0.00 | 82 | 1018.8 |
| 20260506083511 | 13 | 234 | 3.2 | 14.5 | 0.00 | 0.05 | 0.00 | 82 | 1018.8 |
| 20260506083030 | 13 | 247 | 1.6 | 9.7 | 0.00 | 0.05 | 0.00 | 82 | 1018.8 |
| 20260506082512 | 13 | 0 | 1.6 | 11.3 | 0.00 | 0.05 | 0.00 | 82 | 1018.7 |
| 20260506082011 | 13 | 0 | 3.2 | 11.3 | 0.00 | 0.05 | 0.00 | 82 | 1018.7 |
| 20260506081536 | 13 | 0 | 1.6 | 6.4 | 0.00 | 0.05 | 0.00 | 82 | 1018.8 |
| 20260506081011 | 13 | 146 | 0.0 | 9.7 | 0.00 | 0.05 | 0.00 | 82 | 1018.7 |
| 20260506080511 | 13 | 0 | 3.2 | 9.7 | 0.00 | 0.05 | 0.00 | 82 | 1018.7 |
| 20260506073511 | 13 | 225 | 8.0 | 17.7 | 0.00 | 0.18 | 0.00 | 81 | 1018.4 |
| 20260506073039 | 13 | 251 | 6.4 | 24.1 | 0.00 | 0.18 | 0.00 | 81 | 1018.3 |
| 20260506072512 | 13 | 236 | 6.4 | 24.1 | 0.00 | 0.18 | 0.00 | 81 | 1018.3 |
| 20260506072011 | 13 | 232 | 8.0 | 24.1 | 0.00 | 0.18 | 0.00 | 81 | 1018.3 |
| 20260506071527 | 13 | 266 | 6.4 | 19.3 | 0.00 | 0.18 | 0.00 | 81 | 1018.3 |
| 20260506071013 | 13 | 234 | 4.8 | 19.3 | 0.00 | 0.18 | 0.00 | 81 | 1018.2 |
| 20260506070511 | 13 | 238 | 6.4 | 19.3 | 0.00 | 0.18 | 0.00 | 81 | 1018.1 |
| 20260506062511 | 13 | 248 | 3.2 | 11.3 | 0.00 | 0.23 | 0.18 | 80 | 1018.0 |
| 20260506062010 | 13 | 227 | 4.8 | 14.5 | 0.00 | 0.23 | 0.18 | 80 | 1017.9 |
| 20260506061528 | 13 | 218 | 3.2 | 16.1 | 0.00 | 0.23 | 0.18 | 80 | 1017.9 |
| 20260506061010 | 13 | 267 | 3.2 | 16.1 | 0.00 | 0.23 | 0.18 | 80 | 1017.8 |
| 20260506060510 | 13 | 246 | 6.4 | 14.5 | 0.00 | 0.23 | 0.18 | 79 | 1017.8 |
| 20260506051012 | 13 | 223 | 8.0 | 19.3 | 0.00 | 0.36 | 0.18 | 78 | 1017.4 |
| 20260506050510 | 13 | 295 | 6.4 | 16.1 | 0.00 | 0.36 | 0.18 | 78 | 1017.4 |
| 20260506045011 | 13 | 259 | 6.4 | 17.7 | 0.00 | 0.51 | 0.18 | 77 | 1017.3 |
| 20260506044601 | 14 | 286 | 8.0 | 17.7 | 0.00 | 0.51 | 0.18 | 77 | 1017.2 |
| 20260506044011 | 14 | 212 | 8.0 | 19.3 | 0.00 | 0.51 | 0.18 | 77 | 1017.1 |
| 20260506043511 | 14 | 236 | 6.4 | 19.3 | 0.00 | 0.51 | 0.18 | 77 | 1017.0 |
| 20260506043029 | 14 | 255 | 9.7 | 19.3 | 0.00 | 0.51 | 0.18 | 77 | 1017.0 |
| 20260506042511 | 14 | 232 | 8.0 | 19.3 | 0.00 | 0.51 | 0.18 | 76 | 1016.8 |
| 20260506042016 | 14 | 277 | 9.7 | 19.3 | 0.00 | 0.51 | 0.18 | 76 | 1016.9 |
| 20260506041529 | 14 | 226 | 9.7 | 19.3 | 0.00 | 0.51 | 0.18 | 76 | 1016.8 |
| 20260506041014 | 14 | 227 | 9.7 | 19.3 | 0.00 | 0.51 | 0.18 | 76 | 1016.8 |
| 20260506040511 | 14 | 216 | 8.0 | 19.3 | 0.00 | 0.51 | 0.18 | 76 | 1016.8 |
| 20260506040030 | 14 | 261 | 9.7 | 19.3 | 0.00 | 0.51 | 0.18 | 76 | 1016.7 |
| 20260506035511 | 14 | 244 | 8.0 | 17.7 | 0.00 | 0.61 | 0.18 | 77 | 1016.8 |
| 20260506035011 | 14 | 238 | 6.4 | 17.7 | 0.00 | 0.61 | 0.18 | 77 | 1016.7 |
| 20260506034551 | 14 | 236 | 4.8 | 17.7 | 0.00 | 0.61 | 0.18 | 77 | 1016.6 |
| 20260506034011 | 14 | 274 | 8.0 | 19.3 | 0.00 | 0.61 | 0.18 | 77 | 1016.6 |
| 20260506033512 | 15 | 238 | 6.4 | 19.3 | 0.00 | 0.61 | 0.18 | 77 | 1016.4 |
| 20260506033032 | 15 | 221 | 3.2 | 14.5 | 0.00 | 0.61 | 0.18 | 76 | 1016.4 |
| 20260506032509 | 15 | 244 | 6.4 | 14.5 | 0.00 | 0.61 | 0.18 | 76 | 1016.4 |
| 20260506032010 | 15 | 225 | 4.8 | 14.5 | 0.00 | 0.61 | 0.18 | 76 | 1016.3 |
| 20260506031528 | 15 | 288 | 4.8 | 16.1 | 0.00 | 0.61 | 0.18 | 76 | 1016.1 |
| 20260506031012 | 15 | 237 | 6.4 | 25.7 | 0.00 | 0.61 | 0.18 | 76 | 1016.0 |
| 20260506030512 | 15 | 257 | 6.4 | 25.7 | 0.00 | 0.61 | 0.18 | 76 | 1015.9 |
| 20260506030030 | 15 | 293 | 8.0 | 25.7 | 0.00 | 0.61 | 0.18 | 75 | 1015.8 |
| 20260506025510 | 15 | 257 | 8.0 | 19.3 | 0.00 | 0.61 | 0.18 | 75 | 1015.7 |
| 20260506025010 | 15 | 217 | 8.0 | 19.3 | 0.00 | 0.61 | 0.18 | 75 | 1015.8 |
| 20260506024529 | 15 | 229 | 8.0 | 27.4 | 0.00 | 0.61 | 0.18 | 75 | 1015.8 |
| 20260506024010 | 15 | 233 | 12.9 | 27.4 | 0.00 | 0.61 | 0.18 | 74 | 1015.8 |
| 20260506023511 | 15 | 241 | 9.7 | 22.5 | 0.00 | 0.61 | 0.18 | 74 | 1015.6 |
| 20260506023028 | 16 | 254 | 8.0 | 19.3 | 0.00 | 0.61 | 0.18 | 74 | 1015.5 |
| 20260506022513 | 16 | 267 | 8.0 | 22.5 | 0.00 | 0.61 | 0.18 | 74 | 1015.4 |
| 20260506022013 | 16 | 234 | 9.7 | 22.5 | 0.00 | 0.61 | 0.18 | 74 | 1015.4 |
| 20260506021533 | 16 | 239 | 8.0 | 22.5 | 0.00 | 0.61 | 0.18 | 74 | 1015.4 |
| 20260506021014 | 16 | 297 | 6.4 | 22.5 | 0.00 | 0.61 | 0.18 | 73 | 1015.5 |
| 20260506020511 | 16 | 199 | 8.0 | 20.9 | 0.00 | 0.61 | 0.18 | 73 | 1015.4 |
| 20260506020028 | 16 | 219 | 11.3 | 22.5 | 0.00 | 0.61 | 0.18 | 73 | 1015.3 |
| 20260506015514 | 16 | 198 | 6.4 | 22.5 | 0.00 | 0.64 | 0.18 | 73 | 1015.3 |
| 20260506015014 | 16 | 242 | 9.7 | 22.5 | 0.00 | 0.64 | 0.18 | 73 | 1015.3 |
| 20260506014530 | 16 | 226 | 8.0 | 20.9 | 0.00 | 0.64 | 0.18 | 72 | 1015.3 |
| 20260506014013 | 16 | 237 | 8.0 | 20.9 | 0.00 | 0.64 | 0.18 | 72 | 1015.2 |
| 20260506013513 | 16 | 236 | 8.0 | 22.5 | 0.00 | 0.64 | 0.18 | 71 | 1015.1 |
| 20260506013029 | 16 | 178 | 9.7 | 22.5 | 0.00 | 0.64 | 0.18 | 71 | 1015.1 |
| 20260506012513 | 17 | 194 | 8.0 | 25.7 | 0.00 | 0.64 | 0.18 | 71 | 1015.0 |
| 20260506012012 | 17 | 223 | 11.3 | 25.7 | 0.00 | 0.64 | 0.18 | 71 | 1015.1 |
| 20260506011527 | 17 | 247 | 8.0 | 24.1 | 0.00 | 0.64 | 0.18 | 71 | 1014.9 |
| 20260506011013 | 17 | 211 | 8.0 | 24.1 | 0.00 | 0.64 | 0.18 | 71 | 1015.0 |
| 20260506010514 | 17 | 229 | 9.7 | 24.1 | 0.00 | 0.64 | 0.18 | 70 | 1014.8 |
| 20260506010030 | 17 | 216 | 9.7 | 20.9 | 0.00 | 0.64 | 0.18 | 71 | 1014.9 |
| 20260506005512 | 17 | 184 | 8.0 | 20.9 | 0.00 | 0.64 | 0.18 | 71 | 1014.9 |
| 20260506005012 | 17 | 219 | 8.0 | 19.3 | 0.00 | 0.64 | 0.18 | 71 | 1015.0 |
| 20260506004536 | 17 | 198 | 8.0 | 19.3 | 0.00 | 0.64 | 0.18 | 71 | 1015.0 |
| 20260506004012 | 17 | 183 | 8.0 | 19.3 | 0.00 | 0.64 | 0.18 | 71 | 1014.8 |
| 20260506003514 | 17 | 205 | 6.4 | 22.5 | 0.00 | 0.64 | 0.18 | 71 | 1014.9 |
| 20260506003038 | 17 | 214 | 9.7 | 22.5 | 0.00 | 0.64 | 0.18 | 70 | 1014.8 |
| 20260506002514 | 17 | 237 | 6.4 | 20.9 | 0.00 | 0.64 | 0.18 | 71 | 1014.7 |
| 20260506002013 | 17 | 229 | 9.7 | 19.3 | 0.00 | 0.64 | 0.18 | 70 | 1014.8 |
| 20260506001527 | 17 | 238 | 8.0 | 19.3 | 0.00 | 0.64 | 0.18 | 70 | 1014.7 |
| 20260506001015 | 17 | 202 | 6.4 | 19.3 | 0.00 | 0.64 | 0.18 | 70 | 1014.6 |
| 20260506000515 | 17 | 288 | 8.0 | 17.7 | 0.00 | 0.64 | 0.18 | 70 | 1014.7 |
| 20260506000030 | 17 | 195 | 6.4 | 16.1 | 0.00 | 0.64 | 0.18 | 70 | 1014.7 |
| 20260505235514 | 17 | 181 | 6.4 | 16.1 | 0.00 | 0.64 | 0.18 | 69 | 1014.7 |
| 20260505235014 | 17 | 254 | 4.8 | 16.1 | 0.00 | 0.64 | 0.18 | 70 | 1014.7 |
| 20260505234549 | 17 | 246 | 4.8 | 16.1 | 0.00 | 0.64 | 0.18 | 70 | 1014.7 |
| 20260505234018 | 17 | 210 | 4.8 | 16.1 | 0.00 | 0.64 | 0.18 | 70 | 1014.8 |
| 20260505233518 | 17 | 173 | 4.8 | 14.5 | 0.00 | 0.64 | 0.18 | 70 | 1014.8 |
| 20260505233031 | 17 | 197 | 4.8 | 17.7 | 0.00 | 0.64 | 0.18 | 70 | 1014.8 |
| 20260505232510 | 17 | 198 | 6.4 | 17.7 | 0.00 | 0.64 | 0.18 | 70 | 1014.8 |
| 20260505232012 | 17 | 238 | 8.0 | 14.5 | 0.00 | 0.64 | 0.18 | 70 | 1014.9 |
| 20260505231533 | 17 | 257 | 4.8 | 11.3 | 0.00 | 0.64 | 0.18 | 71 | 1014.9 |
| 20260505231012 | 17 | 244 | 4.8 | 20.9 | 0.00 | 0.64 | 0.18 | 71 | 1014.9 |
| 20260505230512 | 17 | 155 | 8.0 | 20.9 | 0.00 | 0.64 | 0.18 | 71 | 1014.9 |
| 20260505230038 | 17 | 192 | 4.8 | 14.5 | 0.00 | 0.64 | 0.18 | 71 | 1014.9 |
| 20260505225517 | 17 | 197 | 4.8 | 14.5 | 0.00 | 0.64 | 0.18 | 71 | 1015.0 |
| 20260505225014 | 17 | 258 | 4.8 | 12.9 | 0.00 | 0.64 | 0.18 | 71 | 1015.0 |
| 20260505224529 | 17 | 163 | 3.2 | 14.5 | 0.00 | 0.64 | 0.18 | 71 | 1015.1 |
| 20260505224011 | 17 | 237 | 6.4 | 14.5 | 0.00 | 0.64 | 0.18 | 71 | 1015.1 |
| 20260505223513 | 17 | 205 | 4.8 | 14.5 | 0.00 | 0.64 | 0.18 | 71 | 1015.2 |
| 20260505223030 | 17 | 221 | 4.8 | 14.5 | 0.00 | 0.64 | 0.18 | 71 | 1015.1 |
| 20260505222511 | 17 | 192 | 4.8 | 14.5 | 0.00 | 0.64 | 0.18 | 71 | 1015.1 |
| 20260505222014 | 17 | 226 | 6.4 | 14.5 | 0.00 | 0.64 | 0.18 | 71 | 1015.3 |
| 20260505221530 | 17 | 184 | 4.8 | 17.7 | 0.00 | 0.64 | 0.18 | 71 | 1015.3 |
| 20260505221011 | 17 | 165 | 4.8 | 17.7 | 0.00 | 0.64 | 0.18 | 72 | 1015.3 |
| 20260505220513 | 17 | 225 | 4.8 | 14.5 | 0.00 | 0.64 | 0.18 | 72 | 1015.2 |
| 20260505220038 | 16 | 164 | 4.8 | 16.1 | 0.00 | 0.64 | 0.18 | 72 | 1015.3 |
| 20260505215514 | 16 | 222 | 4.8 | 16.1 | 0.00 | 0.64 | 0.18 | 72 | 1015.3 |
| 20260505215012 | 16 | 216 | 4.8 | 14.5 | 0.00 | 0.64 | 0.18 | 72 | 1015.3 |
| 20260505214536 | 16 | 213 | 4.8 | 16.1 | 0.00 | 0.64 | 0.18 | 72 | 1015.4 |
| 20260505214014 | 16 | 275 | 6.4 | 16.1 | 0.00 | 0.64 | 0.18 | 72 | 1015.4 |
| 20260505213513 | 16 | 220 | 6.4 | 16.1 | 0.00 | 0.64 | 0.18 | 72 | 1015.4 |
| 20260505213030 | 16 | 167 | 6.4 | 16.1 | 0.00 | 0.64 | 0.18 | 72 | 1015.4 |
| 20260505212515 | 16 | 233 | 6.4 | 16.1 | 0.00 | 0.64 | 0.18 | 72 | 1015.4 |
| 20260505212017 | 17 | 240 | 6.4 | 14.5 | 0.00 | 0.64 | 0.18 | 72 | 1015.5 |
| 20260505211530 | 17 | 252 | 4.8 | 14.5 | 0.00 | 0.64 | 0.18 | 72 | 1015.5 |
| 20260505211013 | 17 | 243 | 4.8 | 14.5 | 0.00 | 0.64 | 0.18 | 72 | 1015.4 |
| 20260505210515 | 17 | 216 | 4.8 | 16.1 | 0.00 | 0.64 | 0.18 | 72 | 1015.4 |
| 20260505210030 | 17 | 253 | 3.2 | 16.1 | 0.00 | 0.64 | 0.18 | 72 | 1015.4 |
| 20260505205512 | 17 | 225 | 6.4 | 16.1 | 0.00 | 0.64 | 0.18 | 71 | 1015.5 |
| 20260505205014 | 17 | 169 | 6.4 | 12.9 | 0.00 | 0.64 | 0.18 | 70 | 1015.4 |
| 20260505204530 | 17 | 223 | 4.8 | 12.9 | 0.00 | 0.64 | 0.18 | 71 | 1015.5 |
| 20260505204013 | 17 | 232 | 4.8 | 12.9 | 0.00 | 0.64 | 0.18 | 71 | 1015.5 |
| 20260505203515 | 17 | 265 | 3.2 | 11.3 | 0.00 | 0.64 | 0.18 | 71 | 1015.6 |
| 20260505203029 | 17 | 263 | 3.2 | 16.1 | 0.00 | 0.64 | 0.18 | 71 | 1015.6 |
| 20260505202514 | 17 | 242 | 3.2 | 16.1 | 0.00 | 0.64 | 0.18 | 71 | 1015.6 |
| 20260505202014 | 17 | 254 | 4.8 | 16.1 | 0.00 | 0.64 | 0.18 | 71 | 1015.6 |
| 20260505201528 | 17 | 238 | 4.8 | 16.1 | 0.00 | 0.64 | 0.18 | 71 | 1015.5 |
| 20260505201013 | 17 | 266 | 4.8 | 16.1 | 0.00 | 0.64 | 0.18 | 71 | 1015.5 |
| 20260505200512 | 17 | 215 | 4.8 | 16.1 | 0.00 | 0.64 | 0.18 | 70 | 1015.5 |
| 20260505200029 | 17 | 223 | 6.4 | 16.1 | 0.00 | 0.64 | 0.18 | 70 | 1015.6 |
| 20260505195513 | 17 | 239 | 6.4 | 14.5 | 0.00 | 0.64 | 0.18 | 71 | 1015.6 |
| 20260505195016 | 17 | 207 | 6.4 | 19.3 | 0.00 | 0.64 | 0.18 | 72 | 1015.6 |
| 20260505194534 | 17 | 270 | 6.4 | 19.3 | 0.00 | 0.64 | 0.18 | 71 | 1015.6 |
| 20260505194013 | 16 | 254 | 4.8 | 16.1 | 0.00 | 0.64 | 0.18 | 72 | 1015.7 |
| 20260505193513 | 16 | 238 | 8.0 | 17.7 | 0.00 | 0.64 | 0.18 | 71 | 1015.8 |
| 20260505193037 | 16 | 244 | 9.7 | 17.7 | 0.00 | 0.64 | 0.18 | 71 | 1015.8 |
| 20260505192514 | 16 | 247 | 6.4 | 19.3 | 0.00 | 0.64 | 0.18 | 72 | 1015.7 |
| 20260505192014 | 16 | 229 | 8.0 | 19.3 | 0.00 | 0.64 | 0.18 | 72 | 1015.7 |
| 20260505191544 | 16 | 265 | 8.0 | 17.7 | 0.00 | 0.64 | 0.18 | 72 | 1015.7 |
| 20260505191018 | 16 | 238 | 6.4 | 16.1 | 0.00 | 0.64 | 0.18 | 73 | 1015.8 |
| 20260505190512 | 16 | 252 | 4.8 | 16.1 | 0.00 | 0.64 | 0.18 | 73 | 1015.7 |
| 20260505190032 | 16 | 255 | 6.4 | 16.1 | 0.00 | 0.64 | 0.18 | 72 | 1015.7 |
| 20260505185518 | 16 | 225 | 4.8 | 16.1 | 0.00 | 0.64 | 0.18 | 73 | 1015.6 |
| 20260505185014 | 16 | 222 | 8.0 | 16.1 | 0.00 | 0.64 | 0.18 | 73 | 1015.6 |
| 20260505184528 | 16 | 202 | 4.8 | 16.1 | 0.00 | 0.64 | 0.18 | 75 | 1015.6 |
| 20260505184014 | 16 | 165 | 6.4 | 16.1 | 0.00 | 0.64 | 0.18 | 74 | 1015.6 |
| 20260505183513 | 16 | 259 | 4.8 | 16.1 | 0.00 | 0.64 | 0.18 | 75 | 1015.6 |
| 20260505183030 | 16 | 257 | 8.0 | 16.1 | 0.00 | 0.64 | 0.18 | 75 | 1015.6 |
| 20260505182512 | 15 | 263 | 8.0 | 22.5 | 0.00 | 0.64 | 0.18 | 77 | 1015.7 |
| 20260505182016 | 15 | 209 | 9.7 | 22.5 | 0.00 | 0.64 | 0.18 | 77 | 1015.7 |
| 20260505181529 | 15 | 243 | 8.0 | 17.7 | 0.00 | 0.64 | 0.18 | 77 | 1015.6 |
| 20260505181012 | 15 | 210 | 8.0 | 14.5 | 0.00 | 0.64 | 0.18 | 77 | 1015.6 |
| 20260505180513 | 15 | 208 | 8.0 | 14.5 | 0.00 | 0.64 | 0.18 | 77 | 1015.6 |
| 20260505180044 | 15 | 250 | 6.4 | 14.5 | 0.00 | 0.64 | 0.18 | 79 | 1015.6 |
| 20260505175514 | 15 | 275 | 6.4 | 12.9 | 0.00 | 0.64 | 0.18 | 80 | 1015.7 |
| 20260505175013 | 14 | 267 | 6.4 | 16.1 | 0.00 | 0.64 | 0.18 | 81 | 1015.5 |
| 20260505174538 | 14 | 211 | 6.4 | 16.1 | 0.00 | 0.64 | 0.18 | 81 | 1015.5 |
| 20260505174013 | 14 | 268 | 6.4 | 22.5 | 0.00 | 0.64 | 0.18 | 81 | 1015.4 |
| 20260505173514 | 14 | 227 | 8.0 | 22.5 | 0.00 | 0.64 | 0.18 | 81 | 1015.4 |
| 20260505173028 | 14 | 231 | 9.7 | 20.9 | 0.00 | 0.64 | 0.18 | 81 | 1015.4 |
| 20260505172512 | 14 | 227 | 6.4 | 22.5 | 0.00 | 0.64 | 0.18 | 82 | 1015.3 |
| 20260505172012 | 13 | 227 | 12.9 | 22.5 | 0.00 | 0.64 | 0.18 | 82 | 1015.3 |
| 20260505171533 | 13 | 237 | 9.7 | 24.1 | 0.00 | 0.64 | 0.18 | 83 | 1015.2 |
| 20260505171011 | 13 | 257 | 9.7 | 24.1 | 0.00 | 0.64 | 0.18 | 83 | 1015.3 |
| 20260505170514 | 13 | 236 | 11.3 | 24.1 | 0.00 | 0.64 | 0.18 | 83 | 1015.1 |
| 20260505170031 | 13 | 232 | 8.0 | 19.3 | 0.00 | 0.64 | 0.18 | 85 | 1015.2 |